Time,TemperatureF,DewpointF,PressureIn,WindDirection,WindDirectionDegrees,WindSpeedMPH,WindSpeedGustMPH,Humidity,HourlyPrecipIn,Conditions,Clouds,dailyrainin,SoftwareType,DateUTC
2013-03-22 00:02:00,22.0,22.0,-100.00,WSW,240,1.0,6.0,99,0.00,,,-99.99,,2013-03-22 06:02:00,
2013-03-22 00:13:00,21.0,21.0,-100.00,West,280,2.0,2.0,99,0.00,,,-99.99,,2013-03-22 06:13:00,
2013-03-22 00:22:00,20.0,20.0,-100.00,NW,310,1.0,2.0,99,0.00,,,-99.99,,2013-03-22 06:22:00,
2013-03-22 00:32:00,19.0,19.0,-100.00,WNW,285,1.0,3.0,99,0.00,,,-99.99,,2013-03-22 06:32:00,
2013-03-22 00:42:00,19.0,19.0,-100.00,WNW,285,0.0,2.0,99,0.00,,,-99.99,,2013-03-22 06:42:00,
2013-03-22 00:52:00,18.0,18.0,-100.00,WNW,285,0.0,1.0,99,0.00,,,-99.99,,2013-03-22 06:52:00,
2013-03-22 01:02:00,18.0,18.0,-100.00,ESE,105,3.0,3.0,99,0.00,,,-99.99,,2013-03-22 07:02:00,
2013-03-22 01:12:00,18.0,18.0,-100.00,ESE,110,0.0,3.0,99,0.00,,,-99.99,,2013-03-22 07:12:00,
2013-03-22 01:22:00,17.0,17.0,-100.00,ESE,110,2.0,4.0,99,0.00,,,-99.99,,2013-03-22 07:22:00,
2013-03-22 01:32:00,16.0,16.0,-100.00,ESE,120,3.0,4.0,99,0.00,,,-99.99,,2013-03-22 07:32:00,
2013-03-22 01:42:00,16.0,16.0,-100.00,SE,135,1.0,4.0,99,0.00,,,-99.99,,2013-03-22 07:42:00,
2013-03-22 01:52:00,16.0,16.0,-100.00,SE,135,0.0,4.0,99,0.00,,,-99.99,,2013-03-22 07:52:00,
2013-03-22 02:03:00,16.0,16.0,-100.00,East,95,2.0,4.0,99,0.00,,,-99.99,,2013-03-22 08:03:00,
2013-03-22 02:12:00,15.0,15.0,-100.00,ESE,115,1.0,3.0,99,0.00,,,-99.99,,2013-03-22 08:12:00,
2013-03-22 02:22:00,15.0,15.0,-100.00,ESE,120,2.0,2.0,99,0.00,,,-99.99,,2013-03-22 08:22:00,
2013-03-22 02:32:00,15.0,15.0,-100.00,ESE,115,2.0,3.0,99,0.00,,,-99.99,,2013-03-22 08:32:00,
2013-03-22 02:42:00,14.0,14.0,-100.00,East,100,2.0,3.0,99,0.00,,,-99.99,,2013-03-22 08:42:00,
2013-03-22 02:52:00,14.0,14.0,-100.00,ESE,115,2.0,3.0,99,0.00,,,-99.99,,2013-03-22 08:52:00,
2013-03-22 03:02:00,13.0,13.0,-100.00,East,100,2.0,4.0,99,0.00,,,-99.99,,2013-03-22 09:02:00,
2013-03-22 03:12:00,13.0,13.0,-100.00,ESE,120,4.0,5.0,99,0.00,,,-99.99,,2013-03-22 09:12:00,
2013-03-22 03:22:00,13.0,13.0,-100.00,ESE,120,3.0,5.0,99,0.00,,,-99.99,,2013-03-22 09:22:00,
2013-03-22 03:32:00,13.0,13.0,-100.00,ESE,115,2.0,4.0,99,0.00,,,-99.99,,2013-03-22 09:32:00,
2013-03-22 03:42:00,13.0,13.0,-100.00,ESE,110,3.0,4.0,99,0.00,,,-99.99,,2013-03-22 09:42:00,
2013-03-22 03:53:00,13.0,13.0,-100.00,East,100,3.0,4.0,99,0.00,,,-99.99,,2013-03-22 09:53:00,
2013-03-22 04:03:00,13.0,13.0,-100.00,East,95,4.0,4.0,99,0.00,,,-99.99,,2013-03-22 10:03:00,
2013-03-22 04:12:00,13.0,13.0,-100.00,East,95,4.0,5.0,99,0.00,,,-99.99,,2013-03-22 10:12:00,
2013-03-22 04:22:00,13.0,13.0,-100.00,East,95,6.0,6.0,99,0.00,,,-99.99,,2013-03-22 10:22:00,
2013-03-22 04:32:00,13.0,13.0,-100.00,ESE,110,6.0,6.0,99,0.00,,,-99.99,,2013-03-22 10:32:00,
2013-03-22 04:42:00,14.0,14.0,-100.00,ESE,110,4.0,6.0,99,0.00,,,-99.99,,2013-03-22 10:42:00,
2013-03-22 04:52:00,14.0,14.0,-100.00,East,80,6.0,7.0,99,0.00,,,-99.99,,2013-03-22 10:52:00,
2013-03-22 05:03:00,15.0,15.0,-100.00,ESE,120,2.0,7.0,99,0.00,,,-99.99,,2013-03-22 11:03:00,
2013-03-22 05:12:00,15.0,15.0,-100.00,East,85,4.0,5.0,99,0.00,,,-99.99,,2013-03-22 11:12:00,
2013-03-22 05:22:00,14.0,14.0,-100.00,East,100,4.0,6.0,99,0.00,,,-99.99,,2013-03-22 11:22:00,
2013-03-22 05:33:00,14.0,14.0,-100.00,ESE,105,4.0,6.0,99,0.00,,,-99.99,,2013-03-22 11:33:00,
2013-03-22 05:42:00,14.0,14.0,-100.00,East,95,6.0,6.0,99,0.00,,,-99.99,,2013-03-22 11:42:00,
2013-03-22 05:52:00,14.0,14.0,-100.00,ESE,120,3.0,5.0,99,0.00,,,-99.99,,2013-03-22 11:52:00,
2013-03-22 06:02:00,15.0,15.0,-100.00,ESE,110,5.0,6.0,99,0.00,,,-99.99,,2013-03-22 12:02:00,
2013-03-22 06:12:00,15.0,15.0,-100.00,East,85,4.0,6.0,99,0.00,,,-99.99,,2013-03-22 12:12:00,
2013-03-22 06:22:00,15.0,15.0,-100.00,East,85,6.0,7.0,99,0.00,,,-99.99,,2013-03-22 12:22:00,
2013-03-22 06:32:00,15.0,15.0,-100.00,East,90,4.0,7.0,99,0.00,,,-99.99,,2013-03-22 12:32:00,
2013-03-22 06:42:00,15.0,15.0,-100.00,ESE,110,6.0,6.0,99,0.00,,,-99.99,,2013-03-22 12:42:00,
2013-03-22 06:52:00,15.0,15.0,-100.00,ESE,105,3.0,6.0,99,0.00,,,-99.99,,2013-03-22 12:52:00,
2013-03-22 07:02:00,14.0,14.0,-100.00,ESE,110,4.0,6.0,99,0.00,,,-99.99,,2013-03-22 13:02:00,
2013-03-22 07:12:00,14.0,14.0,-100.00,ESE,110,4.0,6.0,99,0.00,,,-99.99,,2013-03-22 13:12:00,
2013-03-22 07:22:00,12.0,12.0,-100.00,ESE,110,5.0,7.0,99,0.00,,,-99.99,,2013-03-22 13:22:00,
2013-03-22 07:32:00,12.0,12.0,-100.00,ESE,110,5.0,7.0,99,0.00,,,-99.99,,2013-03-22 13:32:00,
2013-03-22 07:42:00,11.0,11.0,-100.00,ESE,105,6.0,9.0,99,0.00,,,-99.99,,2013-03-22 13:42:00,
2013-03-22 07:52:00,12.0,12.0,-100.00,ESE,105,6.0,6.0,99,0.00,,,-99.99,,2013-03-22 13:52:00,
2013-03-22 08:02:00,11.0,11.0,-100.00,East,95,6.0,8.0,99,0.00,,,-99.99,,2013-03-22 14:02:00,
2013-03-22 08:12:00,11.0,11.0,-100.00,ESE,110,6.0,7.0,99,0.00,,,-99.99,,2013-03-22 14:12:00,
2013-03-22 08:22:00,12.0,12.0,-100.00,ESE,105,4.0,6.0,99,0.00,,,-99.99,,2013-03-22 14:22:00,
2013-03-22 08:32:00,12.0,12.0,-100.00,East,100,5.0,7.0,99,0.00,,,-99.99,,2013-03-22 14:32:00,
2013-03-22 08:42:00,11.0,11.0,-100.00,East,95,6.0,7.0,99,0.00,,,-99.99,,2013-03-22 14:42:00,
2013-03-22 08:52:00,13.0,13.0,-100.00,ESE,105,6.0,7.0,99,0.00,,,-99.99,,2013-03-22 14:52:00,
2013-03-22 09:02:00,14.0,14.0,-100.00,ESE,105,6.0,7.0,99,0.00,,,-99.99,,2013-03-22 15:02:00,
2013-03-22 09:12:00,15.0,15.0,-100.00,ESE,105,6.0,7.0,99,0.00,,,-99.99,,2013-03-22 15:12:00,
2013-03-22 09:22:00,17.0,17.0,-100.00,East,95,5.0,7.0,99,0.00,,,-99.99,,2013-03-22 15:22:00,
2013-03-22 09:32:00,18.0,18.0,-100.00,ESE,110,6.0,7.0,99,0.00,,,-99.99,,2013-03-22 15:32:00,
2013-03-22 09:42:00,19.0,19.0,-100.00,East,85,7.0,8.0,99,0.00,,,-99.99,,2013-03-22 15:42:00,
2013-03-22 09:53:00,20.0,20.0,-100.00,East,85,6.0,7.0,99,0.00,,,-99.99,,2013-03-22 15:53:00,
2013-03-22 10:02:00,21.0,21.0,-100.00,East,90,6.0,7.0,99,0.00,,,-99.99,,2013-03-22 16:02:00,
2013-03-22 10:13:00,22.0,22.0,-100.00,ESE,105,4.0,7.0,99,0.00,,,-99.99,,2013-03-22 16:13:00,
2013-03-22 10:23:00,23.0,23.0,-100.00,ESE,105,4.0,6.0,99,0.00,,,-99.99,,2013-03-22 16:23:00,
2013-03-22 10:32:00,24.0,23.0,-100.00,ESE,105,2.0,4.0,98,0.00,,,-99.99,,2013-03-22 16:32:00,
2013-03-22 10:42:00,26.0,26.0,-100.00,East,95,0.0,3.0,98,0.00,,,-99.99,,2013-03-22 16:42:00,
2013-03-22 10:52:00,28.0,28.0,-100.00,East,90,2.0,3.0,96,0.00,,,-99.99,,2013-03-22 16:52:00,
2013-03-22 11:03:00,26.0,25.0,-100.00,ESE,105,5.0,6.0,95,0.00,,,-99.99,,2013-03-22 17:03:00,
2013-03-22 11:12:00,25.0,22.0,-100.00,East,95,6.0,10.0,89,0.00,,,-99.99,,2013-03-22 17:12:00,
2013-03-22 11:23:00,26.0,23.0,-100.00,ESE,120,3.0,6.0,86,0.00,,,-99.99,,2013-03-22 17:23:00,
2013-03-22 11:32:00,27.0,23.0,-100.00,East,90,3.0,4.0,84,0.00,,,-99.99,,2013-03-22 17:32:00,
2013-03-22 11:42:00,28.0,23.0,-100.00,ESE,105,4.0,6.0,82,0.00,,,-99.99,,2013-03-22 17:42:00,
2013-03-22 11:52:00,31.0,26.0,-100.00,SSE,160,1.0,4.0,80,0.00,,,-99.99,,2013-03-22 17:52:00,
2013-03-22 12:02:00,29.0,20.0,-100.00,West,275,7.0,13.0,67,0.00,,,-99.99,,2013-03-22 18:02:00,
2013-03-22 12:12:00,29.0,17.0,-100.00,WNW,295,7.0,13.0,60,0.00,,,-99.99,,2013-03-22 18:12:00,
2013-03-22 12:22:00,29.0,13.0,-100.00,WNW,300,12.0,16.0,52,0.00,,,-99.99,,2013-03-22 18:22:00,
2013-03-22 12:33:00,29.0,13.0,-100.00,WNW,285,11.0,16.0,49,0.00,,,-99.99,,2013-03-22 18:33:00,
2013-03-22 12:42:00,31.0,14.0,-100.00,WNW,295,9.0,11.0,49,0.00,,,-99.99,,2013-03-22 18:42:00,
2013-03-22 12:52:00,30.0,13.0,-100.00,WNW,290,9.0,13.0,46,0.00,,,-99.99,,2013-03-22 18:52:00,
2013-03-22 13:02:00,32.0,14.0,-100.00,WNW,290,7.0,11.0,45,0.00,,,-99.99,,2013-03-22 19:02:00,
2013-03-22 13:12:00,32.0,12.0,-100.00,West,275,7.0,12.0,43,0.00,,,-99.99,,2013-03-22 19:12:00,
2013-03-22 13:22:00,32.0,12.0,-100.00,WNW,300,7.0,13.0,41,0.00,,,-99.99,,2013-03-22 19:22:00,
2013-03-22 13:32:00,32.0,11.0,-100.00,NW,305,7.0,9.0,40,0.00,,,-99.99,,2013-03-22 19:32:00,
2013-03-22 13:42:00,34.0,12.0,-100.00,WSW,255,3.0,7.0,40,0.00,,,-99.99,,2013-03-22 19:42:00,
2013-03-22 13:52:00,35.0,14.0,-100.00,NW,315,2.0,4.0,41,0.00,,,-99.99,,2013-03-22 19:52:00,
2013-03-22 14:02:00,35.0,14.0,-100.00,South,180,0.0,4.0,42,0.00,,,-99.99,,2013-03-22 20:02:00,
2013-03-22 14:12:00,35.0,14.0,-100.00,WNW,290,2.0,6.0,41,0.00,,,-99.99,,2013-03-22 20:12:00,
2013-03-22 14:22:00,35.0,11.0,-100.00,WNW,285,5.0,8.0,37,0.00,,,-99.99,,2013-03-22 20:22:00,
2013-03-22 14:32:00,36.0,12.0,-100.00,North,350,1.0,7.0,37,0.00,,,-99.99,,2013-03-22 20:32:00,
2013-03-22 14:42:00,36.0,12.0,-100.00,West,265,4.0,9.0,36,0.00,,,-99.99,,2013-03-22 20:42:00,
2013-03-22 14:52:00,35.0,10.0,-100.00,WNW,290,16.0,24.0,34,0.00,,,-99.99,,2013-03-22 20:52:00,
2013-03-22 15:03:00,35.0,10.0,-100.00,WNW,285,19.0,27.0,35,0.00,,,-99.99,,2013-03-22 21:03:00,
2013-03-22 15:12:00,34.0,10.0,-100.00,WNW,300,21.0,30.0,36,0.00,,,-99.99,,2013-03-22 21:12:00,
2013-03-22 15:22:00,34.0,11.0,-100.00,WNW,290,21.0,31.0,37,0.00,,,-99.99,,2013-03-22 21:22:00,
2013-03-22 15:32:00,34.0,11.0,-100.00,WNW,300,21.0,31.0,38,0.00,,,-99.99,,2013-03-22 21:32:00,
2013-03-22 15:43:00,34.0,11.0,-100.00,WNW,300,19.0,29.0,38,0.00,,,-99.99,,2013-03-22 21:43:00,
2013-03-22 15:53:00,34.0,11.0,-100.00,WNW,290,18.0,27.0,38,0.00,,,-99.99,,2013-03-22 21:53:00,
2013-03-22 16:03:00,33.0,12.0,-100.00,WNW,295,19.0,27.0,40,0.00,,,-99.99,,2013-03-22 22:03:00,
2013-03-22 16:12:00,33.0,13.0,-100.00,WNW,300,10.0,28.0,41,0.00,,,-99.99,,2013-03-22 22:12:00,
2013-03-22 16:23:00,33.0,13.0,-100.00,WNW,290,11.0,19.0,42,0.00,,,-99.99,,2013-03-22 22:23:00,
2013-03-22 16:32:00,33.0,13.0,-100.00,WNW,300,10.0,19.0,44,0.00,,,-99.99,,2013-03-22 22:32:00,
2013-03-22 16:42:00,33.0,14.0,-100.00,WNW,300,10.0,14.0,45,0.00,,,-99.99,,2013-03-22 22:42:00,
2013-03-22 16:52:00,33.0,14.0,-100.00,WNW,295,7.0,14.0,46,0.00,,,-99.99,,2013-03-22 22:52:00,
2013-03-22 17:02:00,32.0,15.0,-100.00,SW,220,1.0,14.0,48,0.00,,,-99.99,,2013-03-22 23:02:00,
2013-03-22 17:12:00,32.0,15.0,-100.00,SE,140,4.0,9.0,50,0.00,,,-99.99,,2013-03-22 23:12:00,
2013-03-22 17:22:00,32.0,17.0,-100.00,SE,130,6.0,9.0,52,0.00,,,-99.99,,2013-03-22 23:22:00,
2013-03-22 17:32:00,31.0,16.0,-100.00,ESE,120,7.0,12.0,52,0.00,,,-99.99,,2013-03-22 23:32:00,
2013-03-22 17:42:00,32.0,17.0,-100.00,SE,125,7.0,9.0,53,0.00,,,-99.99,,2013-03-22 23:42:00,
2013-03-22 17:52:00,31.0,17.0,-100.00,SE,140,4.0,9.0,53,0.00,,,-99.99,,2013-03-22 23:52:00,
2013-03-22 18:02:00,31.0,16.0,-100.00,East,85,6.0,8.0,52,0.00,,,-99.99,,2013-03-23 00:02:00,
2013-03-22 18:12:00,31.0,16.0,-100.00,ENE,65,5.0,7.0,52,0.00,,,-99.99,,2013-03-23 00:12:00,
2013-03-22 18:23:00,33.0,17.0,-100.00,NNE,30,4.0,6.0,51,0.00,,,-99.99,,2013-03-23 00:23:00,
2013-03-22 18:32:00,32.0,16.0,-100.00,NNE,30,11.0,17.0,50,0.00,,,-99.99,,2013-03-23 00:32:00,
2013-03-22 18:42:00,31.0,15.0,-100.00,NE,40,6.0,17.0,51,0.00,,,-99.99,,2013-03-23 00:42:00,
2013-03-22 18:52:00,30.0,15.0,-100.00,ENE,65,5.0,10.0,52,0.00,,,-99.99,,2013-03-23 00:52:00,
2013-03-22 19:03:00,29.0,15.0,-100.00,ENE,60,6.0,10.0,53,0.00,,,-99.99,,2013-03-23 01:03:00,
2013-03-22 19:12:00,29.0,15.0,-100.00,NE,55,4.0,9.0,54,0.00,,,-99.99,,2013-03-23 01:12:00,
2013-03-22 19:22:00,29.0,15.0,-100.00,NE,50,6.0,9.0,55,0.00,,,-99.99,,2013-03-23 01:22:00,
2013-03-22 19:32:00,29.0,16.0,-100.00,North,10,7.0,9.0,56,0.00,,,-99.99,,2013-03-23 01:32:00,
2013-03-22 19:42:00,28.0,15.0,-100.00,WNW,295,9.0,14.0,55,0.00,,,-99.99,,2013-03-23 01:42:00,
2013-03-22 19:52:00,28.0,13.0,-100.00,WNW,290,7.0,11.0,53,0.00,,,-99.99,,2013-03-23 01:52:00,
2013-03-22 20:02:00,28.0,13.0,-100.00,West,280,5.0,10.0,53,0.00,,,-99.99,,2013-03-23 02:02:00,
2013-03-22 20:12:00,27.0,13.0,-100.00,WNW,295,9.0,11.0,55,0.00,,,-99.99,,2013-03-23 02:12:00,
2013-03-22 20:22:00,27.0,13.0,-100.00,West,280,7.0,13.0,55,0.00,,,-99.99,,2013-03-23 02:22:00,
2013-03-22 20:32:00,26.0,13.0,-100.00,West,270,7.0,10.0,56,0.00,,,-99.99,,2013-03-23 02:32:00,
2013-03-22 20:42:00,26.0,13.0,-100.00,West,275,9.0,14.0,57,0.00,,,-99.99,,2013-03-23 02:42:00,
2013-03-22 20:52:00,26.0,13.0,-100.00,WNW,300,12.0,21.0,57,0.00,,,-99.99,,2013-03-23 02:52:00,
2013-03-22 21:02:00,26.0,13.0,-100.00,WNW,295,13.0,19.0,57,0.00,,,-99.99,,2013-03-23 03:02:00,
2013-03-22 21:12:00,26.0,13.0,-100.00,WNW,295,11.0,16.0,57,0.00,,,-99.99,,2013-03-23 03:12:00,
2013-03-22 21:22:00,25.0,13.0,-100.00,WNW,285,8.0,24.0,59,0.00,,,-99.99,,2013-03-23 03:22:00,
2013-03-22 21:33:00,25.0,14.0,-100.00,NW,305,7.0,12.0,63,0.00,,,-99.99,,2013-03-23 03:33:00,
2013-03-22 21:43:00,25.0,15.0,-100.00,WNW,300,10.0,12.0,67,0.00,,,-99.99,,2013-03-23 03:43:00,
2013-03-22 21:53:00,24.0,17.0,-100.00,WNW,300,11.0,14.0,72,0.00,,,-99.99,,2013-03-23 03:53:00,
2013-03-22 22:02:00,24.0,18.0,-100.00,WNW,300,11.0,13.0,76,0.00,,,-99.99,,2013-03-23 04:02:00,
2013-03-22 22:12:00,24.0,19.0,-100.00,WNW,295,9.0,11.0,80,0.00,,,-99.99,,2013-03-23 04:12:00,
2013-03-22 22:23:00,23.0,20.0,-100.00,WNW,300,12.0,14.0,85,0.00,,,-99.99,,2013-03-23 04:23:00,
2013-03-22 22:32:00,23.0,20.0,-100.00,WNW,300,11.0,13.0,88,0.00,,,-99.99,,2013-03-23 04:32:00,
2013-03-22 22:43:00,23.0,21.0,-100.00,WNW,300,11.0,12.0,90,0.00,,,-99.99,,2013-03-23 04:43:00,
2013-03-22 22:53:00,23.0,21.0,-100.00,WNW,295,9.0,14.0,92,0.00,,,-99.99,,2013-03-23 04:53:00,
2013-03-22 23:02:00,23.0,21.0,-100.00,WNW,300,7.0,12.0,92,0.00,,,-99.99,,2013-03-23 05:02:00,
2013-03-22 23:12:00,22.0,21.0,-100.00,WNW,295,3.0,9.0,92,0.00,,,-99.99,,2013-03-23 05:12:00,
2013-03-22 23:22:00,22.0,20.0,-100.00,NW,320,4.0,6.0,92,0.00,,,-99.99,,2013-03-23 05:22:00,
2013-03-22 23:32:00,22.0,20.0,-100.00,West,270,1.0,6.0,92,0.00,,,-99.99,,2013-03-23 05:32:00,
2013-03-22 23:42:00,22.0,20.0,-100.00,NW,315,0.0,4.0,92,0.00,,,-99.99,,2013-03-23 05:42:00,
2013-03-22 23:52:00,22.0,20.0,-100.00,South,170,2.0,3.0,92,0.00,,,-99.99,,2013-03-23 05:52:00,